Retour au catalogue

STARLINK-34589

ActifCommunicationsVLEO
NORAD 64747·PAYLOAD·🇺🇸 United States

Lancé Jul 2, 2025 depuis Cape Canaveral Space Force Station

Loading…

Prochains Passages (prochaines 24 heures)

TLE

FraisSource: CelesTrak SupGP

Époque: Sep 15, 2026, 02:31 UTC

1 64747C 25144Z   26258.10534722  .00053692  00000+0  15867-2 0  2582
2 64747  53.1599   6.5779 0001181  92.3920  52.2237 15.34356339    16

Suivez STARLINK-34589 en temps réel avec AllMySat

Download on the App Store